• In Russia
  • List of Countries
  • For 7 days
  • Water Temperature
  • Satellite Maps
  • Weather Map
  • Weather Widgets
  • user-avatar
    Login

    Hourly Weather Etchmiadzin

    Today, 24 August, Thursday

    Time Temperature Precipitation Wind Pressure Humidity
    00:00 +25°C° 0 mm 3 mps 686 mmHg 50%
    01:00 +25°C° 0 mm 3 mps 686 mmHg 53%
    02:00 +24°C° 0 mm 3 mps 686 mmHg 56%
    03:00 +22°C° 0 mm 3 mps 686 mmHg 60%
    04:00 +22°C° 0 mm 3 mps 686 mmHg 61%
    05:00 +23°C° 0 mm 2 mps 686 mmHg 63%
    06:00 +23°C° 0 mm 2 mps 686 mmHg 65%
    07:00 +25°C° 0 mm 2 mps 687 mmHg 57%
    08:00 +27°C° 0 mm 2 mps 687 mmHg 49%
    09:00 +30°C° 0 mm 2 mps 687 mmHg 41%
    10:00 +31°C° 0 mm 2 mps 687 mmHg 36%
    11:00 +34°C° 0 mm 2 mps 687 mmHg 31%
    12:00 +35°C° 0 mm 2 mps 687 mmHg 27%
    13:00 +36°C° 0 mm 2 mps 687 mmHg 26%
    14:00 +36°C° 0 mm 3 mps 687 mmHg 24%
    15:00 +37°C° 0 mm 3 mps 687 mmHg 23%
    16:00 +36°C° 0 mm 3 mps 686 mmHg 26%
    17:00 +35°C° 0 mm 3 mps 686 mmHg 29%
    18:00 +34°C° 0 mm 3 mps 686 mmHg 32%
    19:00 +31°C° 0 mm 3 mps 686 mmHg 36%
    20:00 +29°C° 0 mm 3 mps 687 mmHg 40%
    21:00 +27°C° 0 mm 3 mps 687 mmHg 43%
    22:00 +26°C° 0 mm 3 mps 687 mmHg 43%
    23:00 +25°C° 0 mm 3 mps 687 mmHg 44%

    Tomorrow, 25 August, Friday

    Time Temperature Precipitation Wind Pressure Humidity
    00:00 +25°C° 0 mm 3 mps 688 mmHg 44%
    01:00 +24°C° 0 mm 3 mps 688 mmHg 45%
    02:00 +24°C° 0 mm 3 mps 688 mmHg 46%
    03:00 +22°C° 0 mm 3 mps 687 mmHg 48%
    04:00 +22°C° 0 mm 3 mps 687 mmHg 49%
    05:00 +21°C° 0 mm 2 mps 687 mmHg 49%
    06:00 +21°C° 0 mm 2 mps 687 mmHg 50%
    07:00 +25°C° 0 mm 2 mps 688 mmHg 44%
    08:00 +27°C° 0 mm 2 mps 688 mmHg 39%
    09:00 +29°C° 0 mm 2 mps 688 mmHg 33%
    10:00 +31°C° 0 mm 2 mps 688 mmHg 30%
    11:00 +32°C° 0 mm 2 mps 688 mmHg 27%
    12:00 +35°C° 0 mm 2 mps 688 mmHg 25%
    13:00 +35°C° 0 mm 2 mps 687 mmHg 24%
    14:00 +36°C° 0 mm 3 mps 687 mmHg 23%
    15:00 +36°C° 0 mm 3 mps 686 mmHg 23%
    16:00 +35°C° 0 mm 3 mps 686 mmHg 25%
    17:00 +34°C° 0 mm 4 mps 686 mmHg 27%
    18:00 +33°C° 0 mm 4 mps 686 mmHg 29%
    19:00 +30°C° 0 mm 4 mps 687 mmHg 30%
    20:00 +28°C° 0 mm 4 mps 687 mmHg 31%
    21:00 +26°C° 0 mm 3 mps 687 mmHg 33%
    22:00 +25°C° 0 mm 3 mps 687 mmHg 33%
    23:00 +24°C° 0 mm 3 mps 687 mmHg 33%

    Day after tomorrow, 26 August, Saturday

    Time Temperature Precipitation Wind Pressure Humidity
    00:00 +24°C° 0 mm 3 mps 687 mmHg 33%
    01:00 +22°C° 0 mm 3 mps 687 mmHg 34%
    02:00 +21°C° 0 mm 3 mps 687 mmHg 34%
    03:00 +21°C° 0 mm 3 mps 687 mmHg 35%
    04:00 +20°C° 0 mm 3 mps 687 mmHg 35%
    05:00 +20°C° 0 mm 3 mps 687 mmHg 36%
    06:00 +20°C° 0 mm 2 mps 687 mmHg 37%
    07:00 +23°C° 0 mm 2 mps 687 mmHg 33%
    08:00 +26°C° 0 mm 2 mps 688 mmHg 29%
    09:00 +28°C° 0 mm 2 mps 688 mmHg 25%
    10:00 +30°C° 0 mm 2 mps 688 mmHg 24%
    11:00 +31°C° 0 mm 2 mps 687 mmHg 22%
    12:00 +32°C° 0 mm 2 mps 687 mmHg 21%
    13:00 +34°C° 0 mm 2 mps 687 mmHg 20%
    14:00 +34°C° 0 mm 2 mps 686 mmHg 20%
    15:00 +35°C° 0 mm 3 mps 686 mmHg 20%
    16:00 +34°C° 0 mm 3 mps 686 mmHg 22%
    17:00 +33°C° 0 mm 3 mps 686 mmHg 25%
    18:00 +31°C° 0 mm 3 mps 686 mmHg 27%
    19:00 +29°C° 0 mm 3 mps 686 mmHg 30%
    20:00 +27°C° 0 mm 3 mps 686 mmHg 33%
    21:00 +25°C° 0 mm 3 mps 687 mmHg 35%
    22:00 +24°C° 0 mm 3 mps 686 mmHg 36%
    23:00 +22°C° 0 mm 3 mps 686 mmHg 37%

    27 August, Sunday

    Time Temperature Precipitation Wind Pressure Humidity
    00:00 +22°C° 0 mm 3 mps 686 mmHg 37%
    01:00 +21°C° 0 mm 2 mps 686 mmHg 39%
    02:00 +21°C° 0 mm 2 mps 686 mmHg 41%
    03:00 +20°C° 0 mm 2 mps 686 mmHg 42%
    04:00 +20°C° 0 mm 2 mps 686 mmHg 43%
    05:00 +20°C° 0 mm 2 mps 686 mmHg 44%
    06:00 +20°C° 0 mm 2 mps 686 mmHg 45%
    07:00 +23°C° 0 mm 2 mps 686 mmHg 40%
    08:00 +26°C° 0 mm 2 mps 686 mmHg 35%
    09:00 +28°C° 0 mm 2 mps 687 mmHg 30%
    10:00 +29°C° 0 mm 2 mps 686 mmHg 28%
    11:00 +31°C° 0 mm 2 mps 686 mmHg 25%
    12:00 +32°C° 0 mm 2 mps 686 mmHg 23%
    13:00 +34°C° 0 mm 2 mps 685 mmHg 23%
    14:00 +34°C° 0 mm 2 mps 685 mmHg 22%
    15:00 +35°C° 0 mm 2 mps 685 mmHg 22%
    16:00 +34°C° 0 mm 3 mps 685 mmHg 24%
    17:00 +33°C° 0 mm 3 mps 685 mmHg 27%
    18:00 +31°C° 0 mm 3 mps 685 mmHg 29%
    19:00 +29°C° 0 mm 3 mps 685 mmHg 33%
    20:00 +27°C° 0 mm 3 mps 685 mmHg 37%
    21:00 +25°C° 0 mm 3 mps 686 mmHg 41%
    22:00 +24°C° 0 mm 3 mps 686 mmHg 43%
    23:00 +24°C° 0 mm 3 mps 686 mmHg 45%

    28 August, Monday

    Time Temperature Precipitation Wind Pressure Humidity
    00:00 +23°C° 0 mm 2 mps 686 mmHg 46%
    01:00 +21°C° 0 mm 2 mps 686 mmHg 48%
    02:00 +21°C° 0 mm 2 mps 685 mmHg 51%
    03:00 +20°C° 0 mm 2 mps 685 mmHg 53%
    04:00 +20°C° 0 mm 2 mps 685 mmHg 54%
    05:00 +20°C° 0 mm 2 mps 686 mmHg 54%
    06:00 +20°C° 0 mm 2 mps 686 mmHg 55%
    07:00 +24°C° 0 mm 2 mps 686 mmHg 48%
    08:00 +26°C° 0 mm 2 mps 686 mmHg 41%
    09:00 +28°C° 0 mm 1 mps 686 mmHg 34%
    10:00 +30°C° 0 mm 2 mps 686 mmHg 31%
    11:00 +31°C° 0 mm 2 mps 686 mmHg 28%
    12:00 +34°C° 0 mm 2 mps 685 mmHg 25%
    13:00 +34°C° 0 mm 2 mps 685 mmHg 24%
    14:00 +35°C° 0 mm 2 mps 685 mmHg 23%
    15:00 +35°C° 0 mm 3 mps 684 mmHg 23%
    16:00 +34°C° 0 mm 2 mps 684 mmHg 25%
    17:00 +32°C° 0 mm 2 mps 684 mmHg 28%
    18:00 +31°C° 0 mm 2 mps 684 mmHg 30%
    19:00 +29°C° 0 mm 2 mps 684 mmHg 35%
    20:00 +27°C° 0 mm 3 mps 684 mmHg 40%
    21:00 +26°C° 0 mm 3 mps 685 mmHg 45%
    22:00 +25°C° 0 mm 3 mps 685 mmHg 46%
    23:00 +24°C° 0 mm 3 mps 685 mmHg 48%

    29 August, Tuesday

    Time Temperature Precipitation Wind Pressure Humidity
    00:00 +24°C° 0 mm 2 mps 685 mmHg 49%
    01:00 +23°C° 0 mm 2 mps 684 mmHg 50%
    02:00 +23°C° 0 mm 2 mps 684 mmHg 51%
    03:00 +21°C° 0 mm 2 mps 684 mmHg 52%
    04:00 +21°C° 0 mm 2 mps 684 mmHg 53%
    05:00 +21°C° 0 mm 2 mps 684 mmHg 53%
    06:00 +21°C° 0 mm 2 mps 685 mmHg 54%
    07:00 +25°C° 0 mm 2 mps 685 mmHg 46%
    08:00 +27°C° 0 mm 2 mps 685 mmHg 39%
    09:00 +30°C° 0 mm 2 mps 685 mmHg 31%
    10:00 +31°C° 0 mm 2 mps 685 mmHg 28%
    11:00 +34°C° 0 mm 2 mps 685 mmHg 25%
    12:00 +35°C° 0 mm 2 mps 684 mmHg 22%
    13:00 +35°C° 0 mm 2 mps 684 mmHg 21%
    14:00 +36°C° 0 mm 3 mps 683 mmHg 20%
    15:00 +36°C° 0 mm 3 mps 683 mmHg 19%
    16:00 +35°C° 0 mm 2 mps 683 mmHg 22%
    17:00 +34°C° 0 mm 2 mps 683 mmHg 25%
    18:00 +32°C° 0 mm 2 mps 683 mmHg 28%
    19:00 +30°C° 0 mm 2 mps 683 mmHg 32%
    20:00 +28°C° 0 mm 2 mps 683 mmHg 35%
    21:00 +27°C° 0 mm 3 mps 683 mmHg 39%
    22:00 +26°C° 0 mm 2 mps 683 mmHg 41%
    23:00 +25°C° 0 mm 2 mps 683 mmHg 44%
    Show more